Location: Del Oro Observatory
(38.3044°N, 104.8119°W)
Time: 18:16:52
(UTC-06:00)

Cosmos 1602 Rocket - Visible Passes

Search period start: 28 August 2015 00:00
Search period end: 07 September 2015 00:00
Orbit: 604 x 635 km, 82.5° (Epoch: 28 August)

Date Brightness Start Highest point End Pass type
(mag) Time Alt. Az. Time Alt. Az. Time Alt. Az.
29 Aug 5.6 20:05:19 10° NNW 20:09:20 33° W 20:13:18 10° SSW visible
30 Aug 6.6 20:23:33 10° NW 20:26:38 18° W 20:29:35 10° SW visible
03 Sep 6.8 19:55:41 10° NW 19:58:38 17° W 20:01:25 10° SW visible
